sat.trackr.live / text

‹ back to catalog

HULIANWAN GAOGUI-01 (H*)

NORAD 59069 · 2024-040A

PAYLOAD ACTIVE UNKNOWN

§ Identity

Operator
Country
PRC
Launch date
2024-02-29
Launch site
XICLF
Launch vehicle
Mass (kg)
RCS (m²)

Purposes: comms

External: N2YO · Heavens-Above · Gunter

§ Orbital elements

Epoch: 2026-05-25T03:54:16.337376Z

Period
1,436.08 min
Inclination
0.0663°
Eccentricity
0.0003741
Mean motion
1.00272864 rev/d
Perigee alt
35,770.5 km
Apogee alt
35,802.1 km
Semi-major
42,164.4 km
B*
0.0000e+0
RAAN
327.9957°
Arg perigee
67.8814°
Mean anomaly
299.1293°
Rev number
709

§ Raw data

HULIANWAN GAOGUI-01 (H*)1 59069U 24040A   26145.16268909  .00000154  00000+0  00000+0 0  99962 59069   0.0663 327.9957 0003741  67.8814 299.1293  1.00272864  7098

JSON: /api/v1/satellites/59069 · /tle

For live sub-satellite position, see the globe view (requires WebGL).

§ Visibility from observer

Set your observer location to see the next 7 days of passes ≥ 10°. The values pass through the URL so the page stays shareable.

No JS? Fill the form by hand. The geolocation button needs JavaScript.